Weather History for Cortland County-chase Field, NY

Change the Weather History Date:

Saturday, December 7, 2013

  Actual Average (KBGM) Record (KBGM)
Temperature  
Mean Temperature 28 °F 30 °F  
Max Temperature 32 °F 36 °F 62 °F (1951)
Min Temperature 23 °F 24 °F 7 °F (1970)
Degree Days  
Heating Degree Days 38 35  
Month to date heating degree days 237  
Since 1 July heating degree days 1812  
Cooling Degree Days 0 0  
Month to date cooling degree days 0  
Year to date cooling degree days 381  
Moisture  
Dew Point 20 °F    
Average Humidity 73    
Maximum Humidity 93    
Minimum Humidity 55    
Precipitation  
Precipitation 0.00 in 0.10 in 0.86 in (1976)
Month to date precipitation 0.72  
Year to date precipitation 37.19  
Snow  
Snow 0.00 in 0.50 in 5.10 in (1959)
Month to date snowfall 3.4  
Since 1 July snowfall 10.2  
Snow Depth -    
Sea Level Pressure  
Sea Level Pressure 30.35 in    
Wind  
Wind Speed 6 mph (West)    
Max Wind Speed 15 mph    
Max Gust Speed 20 mph    
Visibility 10 miles    
Events Snow    
T = Trace of Precipitation, MM = Missing Value Source: NWS Daily Summary

Daily Weather History Graph

Daily Weather History Graph

Search for Another Location

Airport:

Trip Planner

Search our weather history database for the weather conditions in past years. The results will help you decide how hot, cold, wet, or windy it might be!

Date:

Astronomy

Dec. 07, 2013 Rise Set
Actual Time 7:21 AM EST 4:31 PM EST
Civil Twilight 6:49 AM EST 5:03 PM EST
Nautical Twilight 6:14 AM EST 5:38 PM EST
Astronomical Twilight 5:40 AM EST 6:12 PM EST
Moon 11:00 AM EST (12/7) 10:15 PM EST (12/7)
Length of Visible Light 10h 13m
Length of Day
9h 10m
Waxing Crescent, 29% of the Moon is Illuminated
Dec 7
Waxing Crescent
Dec 9
First Quarter
Dec 17
Full
Dec 25
Last Quarter
Jan 1
New

Hourly Weather History & Observations

Time (EST) Temp. Windchill Dew Point Humidity Pressure Visibility Wind Dir Wind Speed Gust Speed Precip Events Conditions
12:15 AM 30.2 °F 24.3 °F 28.4 °F 93% 30.20 in 2.0 mi WNW 5.8 mph - N/A Snow Light Snow
12:35 AM 30.2 °F 26.7 °F 28.4 °F 93% 30.19 in 3.0 mi West 3.5 mph - N/A Snow Light Snow
12:55 AM 30.2 °F 25.4 °F 26.6 °F 86% 30.20 in 10.0 mi West 4.6 mph - N/A   Overcast
1:35 AM 30.2 °F - 28.4 °F 93% 30.19 in 10.0 mi Calm Calm - N/A   Overcast
2:15 AM 30.2 °F - 28.4 °F 93% 30.19 in 5.0 mi Calm Calm - N/A Snow Light Snow
2:35 AM 30.2 °F 25.4 °F 28.4 °F 93% 30.21 in 7.0 mi West 4.6 mph - N/A Snow Light Snow
2:55 AM 30.2 °F 25.4 °F 26.6 °F 86% 30.21 in 7.0 mi WNW 4.6 mph - N/A Snow Light Snow
3:15 AM 30.2 °F 25.4 °F 28.4 °F 93% 30.22 in 7.0 mi West 4.6 mph - N/A Snow Light Snow
3:35 AM 30.2 °F 24.3 °F 28.4 °F 93% 30.22 in 7.0 mi WNW 5.8 mph - N/A Snow Light Snow
3:55 AM 30.2 °F 25.4 °F 26.6 °F 86% 30.22 in 10.0 mi NW 4.6 mph - N/A   Overcast
4:15 AM 30.2 °F 25.4 °F 26.6 °F 86% 30.22 in 10.0 mi NW 4.6 mph - N/A   Mostly Cloudy
4:35 AM 30.2 °F - 26.6 °F 86% 30.22 in 10.0 mi Calm Calm - N/A   Mostly Cloudy
4:55 AM 30.2 °F - 26.6 °F 86% 30.23 in 10.0 mi Calm Calm - N/A   Mostly Cloudy
5:15 AM 30.2 °F - 26.6 °F 86% 30.23 in 10.0 mi Calm Calm - N/A   Overcast
5:35 AM 28.4 °F 24.6 °F 24.8 °F 86% 30.24 in 10.0 mi WNW 3.5 mph - N/A   Overcast
5:55 AM 28.4 °F 21.2 °F 24.8 °F 86% 30.25 in 10.0 mi WNW 6.9 mph - N/A   Overcast
6:15 AM 28.4 °F 21.2 °F 23.0 °F 80% 30.26 in 10.0 mi WNW 6.9 mph - N/A   Overcast
6:35 AM 28.4 °F 20.4 °F 24.8 °F 86% 30.27 in 10.0 mi West 8.1 mph - N/A   Overcast
6:55 AM 28.4 °F 23.3 °F 24.8 °F 86% 30.28 in 10.0 mi West 4.6 mph - N/A   Overcast
7:15 AM 28.4 °F 21.2 °F 24.8 °F 86% 30.28 in 10.0 mi West 6.9 mph - N/A   Overcast
7:35 AM 28.4 °F 22.2 °F 24.8 °F 86% 30.29 in 10.0 mi WNW 5.8 mph - N/A   Overcast
7:55 AM 28.4 °F 21.2 °F 24.8 °F 86% 30.31 in 10.0 mi West 6.9 mph - N/A   Mostly Cloudy
8:15 AM 28.4 °F 21.2 °F 23.0 °F 80% 30.32 in 10.0 mi WNW 6.9 mph - N/A   Mostly Cloudy
8:35 AM 28.4 °F 22.2 °F 23.0 °F 80% 30.32 in 10.0 mi West 5.8 mph - N/A   Scattered Clouds
8:55 AM 28.4 °F 21.2 °F 23.0 °F 80% 30.34 in 10.0 mi West 6.9 mph - N/A   Scattered Clouds
9:15 AM 30.2 °F 20.2 °F 23.0 °F 75% 30.34 in 10.0 mi West 12.7 mph - N/A   Clear
9:35 AM 30.2 °F 21.3 °F 23.0 °F 75% 30.34 in 10.0 mi West 10.4 mph 16.1 mph N/A   Scattered Clouds
9:55 AM 30.2 °F 22.6 °F 23.0 °F 75% 30.35 in 10.0 mi West 8.1 mph - N/A   Mostly Cloudy
10:15 AM 30.2 °F 21.3 °F 23.0 °F 75% 30.36 in 10.0 mi West 10.4 mph 16.1 mph N/A   Overcast
10:35 AM 30.2 °F 20.2 °F 21.2 °F 69% 30.36 in 10.0 mi West 12.7 mph 17.3 mph N/A   Overcast
10:55 AM 30.2 °F 20.8 °F 19.4 °F 64% 30.36 in 10.0 mi West 11.5 mph 16.1 mph N/A   Scattered Clouds
11:15 AM 30.2 °F 21.9 °F 19.4 °F 64% 30.35 in 10.0 mi WNW 9.2 mph - N/A   Clear
11:35 AM 30.2 °F 21.3 °F 19.4 °F 64% 30.35 in 10.0 mi WNW 10.4 mph 17.3 mph N/A   Scattered Clouds
11:55 AM 32.0 °F 24.8 °F 19.4 °F 60% 30.35 in 10.0 mi West 8.1 mph 17.3 mph N/A   Mostly Cloudy
12:15 PM 32.0 °F 25.6 °F 19.4 °F 60% 30.35 in 10.0 mi West 6.9 mph - N/A   Mostly Cloudy
12:35 PM 30.2 °F 23.4 °F 19.4 °F 64% 30.35 in 10.0 mi NW 6.9 mph - N/A   Mostly Cloudy
12:55 PM 32.0 °F 21.6 °F 19.4 °F 60% 30.35 in 10.0 mi West 15.0 mph 19.6 mph N/A   Overcast
1:15 PM 32.0 °F 24.2 °F 19.4 °F 60% 30.35 in 10.0 mi WNW 9.2 mph 17.3 mph N/A   Overcast
1:35 PM 32.0 °F 24.2 °F 17.6 °F 55% 30.35 in 10.0 mi WNW 9.2 mph 19.6 mph N/A   Overcast
1:55 PM 30.2 °F 20.8 °F 19.4 °F 64% 30.36 in 10.0 mi WNW 11.5 mph - N/A   Overcast
2:15 PM 30.2 °F 20.2 °F 17.6 °F 60% 30.36 in 10.0 mi NW 12.7 mph 19.6 mph N/A   Scattered Clouds
2:35 PM 30.2 °F 19.8 °F 17.6 °F 60% 30.36 in 10.0 mi West 13.8 mph 18.4 mph N/A   Clear
2:55 PM 30.2 °F 21.9 °F 17.6 °F 60% 30.37 in 10.0 mi WNW 9.2 mph - N/A   Mostly Cloudy
3:15 PM 28.4 °F 20.4 °F 17.6 °F 64% 30.38 in 10.0 mi NW 8.1 mph 16.1 mph N/A   Mostly Cloudy
3:35 PM 28.4 °F 21.2 °F 17.6 °F 64% 30.39 in 10.0 mi NW 6.9 mph - N/A   Mostly Cloudy
3:55 PM 28.4 °F 19.7 °F 15.8 °F 59% 30.40 in 10.0 mi WNW 9.2 mph - N/A   Mostly Cloudy
4:15 PM 28.4 °F 19.7 °F 15.8 °F 59% 30.40 in 10.0 mi West 9.2 mph - N/A   Scattered Clouds
4:35 PM 28.4 °F 20.4 °F 15.8 °F 59% 30.40 in 10.0 mi West 8.1 mph 16.1 mph N/A   Scattered Clouds
4:55 PM 28.4 °F 22.2 °F 15.8 °F 59% 30.40 in 10.0 mi WNW 5.8 mph - N/A   Overcast
5:15 PM 26.6 °F 20.0 °F 14.0 °F 59% 30.41 in 10.0 mi WNW 5.8 mph - N/A   Overcast
5:35 PM 26.6 °F 21.2 °F 15.8 °F 64% 30.42 in 10.0 mi WNW 4.6 mph - N/A   Mostly Cloudy
5:55 PM 26.6 °F 20.0 °F 15.8 °F 64% 30.42 in 10.0 mi NW 5.8 mph - N/A   Overcast
6:15 PM 26.6 °F 16.8 °F 15.8 °F 64% 30.44 in 10.0 mi WNW 10.4 mph - N/A   Overcast
6:35 PM 26.6 °F 19.1 °F 15.8 °F 64% 30.43 in 10.0 mi West 6.9 mph - N/A   Overcast
6:55 PM 26.6 °F 21.2 °F 14.0 °F 59% 30.44 in 10.0 mi WNW 4.6 mph - N/A   Mostly Cloudy
7:15 PM 26.6 °F 22.6 °F 14.0 °F 59% 30.45 in 10.0 mi West 3.5 mph - N/A   Clear
7:35 PM 24.8 °F 17.9 °F 14.0 °F 64% 30.45 in 10.0 mi West 5.8 mph - N/A   Clear
7:55 PM 24.8 °F - 14.0 °F 64% 30.46 in 10.0 mi Calm Calm - N/A   Clear
8:15 PM 24.8 °F - 14.0 °F 64% 30.46 in 10.0 mi Calm Calm - N/A   Clear
8:35 PM 23.0 °F - 14.0 °F 68% 30.47 in 10.0 mi Calm Calm - N/A   Mostly Cloudy
8:55 PM 24.8 °F 20.5 °F 14.0 °F 64% 30.47 in 10.0 mi SW 3.5 mph - N/A   Overcast
9:15 PM 24.8 °F - 14.0 °F 64% 30.47 in 10.0 mi Calm Calm - N/A   Overcast
9:35 PM 24.8 °F 20.5 °F 15.8 °F 69% 30.49 in 10.0 mi WSW 3.5 mph - N/A   Overcast
9:55 PM 24.8 °F 20.5 °F 17.6 °F 74% 30.49 in 10.0 mi WSW 3.5 mph - N/A   Overcast
10:15 PM 24.8 °F 20.5 °F 17.6 °F 74% 30.49 in 10.0 mi SW 3.5 mph - N/A   Overcast
10:35 PM 24.8 °F 20.5 °F 17.6 °F 74% 30.49 in 10.0 mi West 3.5 mph - N/A   Overcast
10:55 PM 24.8 °F 20.5 °F 17.6 °F 74% 30.49 in 10.0 mi WSW 3.5 mph - N/A   Overcast
11:15 PM 24.8 °F 20.5 °F 17.6 °F 74% 30.49 in 10.0 mi West 3.5 mph - N/A   Overcast
11:35 PM 24.8 °F 19.1 °F 15.8 °F 69% 30.49 in 10.0 mi WNW 4.6 mph - N/A   Overcast
11:55 PM 24.8 °F 16.9 °F 17.6 °F 74% 30.50 in 10.0 mi West 6.9 mph - N/A   Overcast